Погода в Вылкове

Россия / Алтайский край     53°04′44″N   81°25′44″E
темп.,
°C
ветер,
м/с
пор.,
м/с
влажн.,
%
обл.,
%
осадки,
мм/ч
давл.,
гПа
погр.,
м
9 мая, вс
вс901:00+14зюз22430 0.0 101818
04:00+12зюз22455 0.0 101720
07:00+12ссз22485 0.0 101826
10:00+19зсз34280 0.0 1016545
13:00+22ссз35271 0.0 10152074
16:00+23ссв552949 0.0 10142374
19:00+19св6639100 0.0 10151023
22:00+13св7123968 0.0 1017673
10 мая, пн
пн1001:00+10всв7134482 0.0 1018683
04:00+8всв71448100 0.0 1018690
07:00+7всв61454100 0.0 1019760
10:00+10всв81242100 0.0 1018857
13:00+14всв81030100 0.0 10161325
16:00+17всв7927100 0.0 10151898
19:00+16всв71130100 0.0 10141785
22:00+13всв51335100 0.0 1015627
11 мая, вт
вт1101:00+11св61444100 0.0 1014513
04:00+9ссв51255100 0.0 1015419
07:00+8ссв5126499 0.0 1016490
10:00+12ссв69468 0.0 1016984
13:00+17ссв79325 0.0 10161955
16:00+19ссв782775 0.0 10152860
19:00+17ссв783795 0.0 10172141
22:00+13ссв611559 0.0 1020939
12 мая, ср
ср1201:00+10с411605 0.0 1020362
04:00+7с39641 0.0 1021201
07:00+7ссз38622 0.0 1022263
10:00+12с57420 0.0 10221299
13:00+15с46302 0.0 10211832
16:00+17ссз572532 0.0 10202182
19:00+17ссз562547 0.0 10192160
22:00+12с223874 0.0 102012
13 мая, чт
чт1301:00+9юв224554 0.0 102013
04:00+9ю224989 0.0 101935
07:00+10ююз124790 0.0 101967
10:00+15вюв013599 0.0 1018560
13:00+16зюз2235100 0.0 10171934
16:00+17зсз233892 0.1 10171710
19:00+15ссз555013 0.1 10171207
22:00+12сз49675 0.0 1018330